Tracking 18843 objects as of 21-November-2017
HD Live streaming from Space Station
objects crossing your sky now

IRIDIUM 121

Track IRIDIUM 121 now!
10-day predictions
IRIDIUM 121 is classified as:


NORAD ID: 42812
Int'l Code: 2017-039K
Perigee: 783.4 km
Apogee: 786.2 km
Inclination: 86.4 °
Period: 100.4 minutes
Semi major axis: 7155 km
RCS: Unknown
Launch date: June 25, 2017
Source: United States (US)
Launch site: AIR FORCE WESTERN TEST RANGE (AFWTR)
aabbcc
Your satellite tracking list
Your tracking list is empty




NASA's NSSDC Master Catalog

Two Line Element Set (TLE):
1 42812U 17039K   17324.23563093  .00000123  00000-0  36728-4 0  9991
2 42812  86.4014 221.9706 0001938  89.2515 270.8903 14.34219352 21185
Source of the keplerian elements: AFSPC